Starlink 31428

operational
NORAD ID: 59367 Int'l Des: 2024-060 Owner: SPXS Country: US Constellation: starlink
LEOCIRCULAR

About Starlink 31428

Description loading...

Live Position

Loading 3D Globe...

Upcoming Passes

Altitude History

Altitude vs Time

uPlot chart will show altitude changes over time

Two-Line Element Set

1 59367U 24060V 26036.18397527 .00001237 00000-0 54475-4 0 9993
2 59367 43.0018 83.2437 0000768 202.8608 157.2209 15.27574609105099
Epoch: Feb 5, 2026 • Age: 16 hours

Current Status

Altitude 490.2 km
Velocity 7.62 km/s
Sub-Earth Point -27.14°S, 28.41°W
Launch Date Mar 31, 2024
Age 1.8 years
Type internet

Technical Details

Classification Payload
Mass 730.00 kg
Dry Mass 700.00 kg
Total Mass 730.00 kg
Length 0.30 m
Diameter 4.10 m
Span 29.00 m
Shape Box + pan
Manufacturer SPXS
Bus Type Starlink V2M
Phase Status In Orbit
Owner/State SPXS/US

Large Constellations

Loading constellations...